CXA6371 ZBAA-ZSAM

Flight info

Callsign CXA6371
Flight time N/A
Altitude 35100
Route ELKUR9Z ELKUR W40 YQG/K0863S1040 W142 DALIM/K0856S1070 A593 DPX A470 AKDIM/K0863S1100 A470 ENVEN ENVEN8X
Aircraft A320/M-SDE3FGHIRWY/LB1

Departure

Time N/A
Airport Beijing Capital International Airport (ZBAA)

Arrival

Time 2026-05-07 14:52
Airport Xiamen Gaoqi International Airport (ZSAM)
Time Latitude Longitude Altitude Speed Heading
2026-05-07 14:38 24.94298 118.01802 10098 ft 254 kts 258°
2026-05-07 14:38 24.93604 118.00041 9858 ft 253 kts 232°
2026-05-07 14:38 24.92271 117.98800 9601 ft 253 kts 206°
2026-05-07 14:39 24.90429 117.98337 9317 ft 254 kts 179°
2026-05-07 14:39 24.88665 117.98488 9086 ft 256 kts 176°
2026-05-07 14:39 24.86886 117.98658 8829 ft 256 kts 176°
2026-05-07 14:39 24.85121 117.98824 8578 ft 254 kts 176°
2026-05-07 14:40 24.83367 117.98991 8332 ft 253 kts 176°
2026-05-07 14:40 24.81609 117.99156 8089 ft 253 kts 176°
2026-05-07 14:40 24.79863 117.99318 7847 ft 252 kts 176°
2026-05-07 14:40 24.78112 117.99479 7606 ft 251 kts 176°
2026-05-07 14:41 24.76374 117.99641 7362 ft 251 kts 176°
2026-05-07 14:41 24.74634 117.99801 7124 ft 250 kts 176°
2026-05-07 14:41 24.72905 117.99962 6890 ft 249 kts 176°
2026-05-07 14:41 24.71230 118.00118 6664 ft 249 kts 176°
2026-05-07 14:42 24.69473 118.00282 6422 ft 248 kts 176°
2026-05-07 14:42 24.67754 118.00445 6175 ft 247 kts 176°
2026-05-07 14:42 24.66429 118.00569 6016 ft 246 kts 177°
2026-05-07 14:42 24.64728 118.00727 5935 ft 246 kts 176°
2026-05-07 14:43 24.63022 118.00887 5939 ft 247 kts 176°
2026-05-07 14:43 24.61304 118.01047 5940 ft 247 kts 176°
2026-05-07 14:43 24.59596 118.01208 5940 ft 247 kts 176°
2026-05-07 14:43 24.57879 118.01240 5938 ft 246 kts 189°
2026-05-07 14:44 24.56261 118.00684 5938 ft 244 kts 209°
2026-05-07 14:44 24.54912 117.99573 5935 ft 242 kts 228°
2026-05-07 14:44 24.53787 117.98191 5843 ft 244 kts 229°
2026-05-07 14:44 24.52666 117.96819 5599 ft 242 kts 229°
2026-05-07 14:45 24.51543 117.95455 5360 ft 240 kts 229°
2026-05-07 14:45 24.50430 117.94104 5022 ft 241 kts 229°
2026-05-07 14:45 24.49327 117.92765 4667 ft 244 kts 229°
2026-05-07 14:45 24.48183 117.91379 4291 ft 246 kts 229°
2026-05-07 14:46 24.46821 117.90243 3931 ft 250 kts 200°
2026-05-07 14:46 24.45103 117.90147 3559 ft 254 kts 163°
2026-05-07 14:46 24.43594 117.91101 3224 ft 252 kts 143°
2026-05-07 14:46 24.42267 117.92257 3092 ft 234 kts 136°
2026-05-07 14:47 24.41548 117.93716 2991 ft 216 kts 95°
2026-05-07 14:47 24.41898 117.95233 2926 ft 204 kts 54°
2026-05-07 14:47 24.42721 117.96437 2928 ft 200 kts 51°
2026-05-07 14:47 24.43351 117.97318 2927 ft 199 kts 51°
2026-05-07 14:48 24.44212 117.98516 2861 ft 199 kts 51°
2026-05-07 14:48 24.45052 117.99687 2652 ft 193 kts 51°
2026-05-07 14:48 24.45867 118.00824 2410 ft 189 kts 52°
2026-05-07 14:48 24.46638 118.01900 2178 ft 185 kts 52°
2026-05-07 14:49 24.47427 118.03001 1940 ft 181 kts 52°
2026-05-07 14:49 24.48191 118.04067 1725 ft 174 kts 52°
2026-05-07 14:49 24.48921 118.05084 1481 ft 167 kts 52°
2026-05-07 14:49 24.49616 118.06056 1280 ft 161 kts 52°
2026-05-07 14:50 24.50286 118.06993 1090 ft 152 kts 52°
2026-05-07 14:50 24.50891 118.07838 901 ft 149 kts 52°
2026-05-07 14:50 24.51501 118.08691 723 ft 145 kts 52°
2026-05-07 14:50 24.52113 118.09546 553 ft 143 kts 52°
2026-05-07 14:51 24.52669 118.10325 388 ft 141 kts 52°
2026-05-07 14:51 24.53227 118.11114 212 ft 140 kts 52°
2026-05-07 14:51 24.53823 118.11945 60 ft 129 kts 51°
2026-05-07 14:51 24.54269 118.12568 55 ft 79 kts 52°
2026-05-07 14:52 24.54502 118.12896 50 ft 30 kts 52°
2026-05-07 14:52 24.54545 118.12955 51 ft 3 kts 51°
2026-05-07 14:52 24.54561 118.12977 50 ft 0 kts 51°
2026-05-07 14:52 24.54589 118.13015 51 ft 12 kts 51°
2026-05-07 14:53 24.54646 118.13094 50 ft 15 kts 53°
2026-05-07 14:53 24.54696 118.13204 51 ft 17 kts 78°
2026-05-07 14:53 24.54710 118.13308 51 ft 11 kts 83°
2026-05-07 14:53 24.54716 118.13361 50 ft 1 kts 84°
2026-05-07 14:54 24.54718 118.13380 50 ft 4 kts 84°
2026-05-07 14:54 24.54727 118.13418 50 ft 7 kts 78°
2026-05-07 14:54 24.54699 118.13441 50 ft 6 kts 172°
2026-05-07 14:54 24.54669 118.13411 50 ft 7 kts 220°
2026-05-07 14:55 24.54629 118.13374 50 ft 8 kts 220°
2026-05-07 14:55 24.54604 118.13325 51 ft 8 kts 246°
2026-05-07 14:55 24.54570 118.13271 51 ft 9 kts 225°
2026-05-07 14:55 24.54524 118.13210 50 ft 11 kts 233°
2026-05-07 14:56 24.54473 118.13138 49 ft 13 kts 232°
2026-05-07 14:56 24.54414 118.13056 53 ft 15 kts 232°
2026-05-07 14:56 24.54347 118.12963 54 ft 16 kts 232°
2026-05-07 14:56 24.54273 118.12859 55 ft 18 kts 231°
2026-05-07 14:57 24.54229 118.12798 48 ft 5 kts 231°
2026-05-07 14:57 24.54202 118.12761 53 ft 7 kts 231°
2026-05-07 14:57 24.54169 118.12714 54 ft 9 kts 233°
2026-05-07 14:57 24.54128 118.12656 51 ft 10 kts 232°
2026-05-07 14:58 24.54086 118.12597 51 ft 8 kts 232°
2026-05-07 14:58 24.54046 118.12542 54 ft 10 kts 231°
2026-05-07 14:58 24.53991 118.12518 55 ft 6 kts 171°
2026-05-07 14:58 24.53980 118.12521 58 ft 1 kts 163°
2026-05-07 14:59 24.53971 118.12524 55 ft 0 kts 163°
2026-05-07 15:00 24.53966 118.12529 58 ft 2 kts 142°
2026-05-07 15:00 24.53949 118.12544 53 ft 4 kts 140°
2026-05-07 15:00 24.53919 118.12570 54 ft 7 kts 147°
2026-05-07 15:00 24.53891 118.12587 56 ft 5 kts 154°